Montreal Mirabel, Quebec

10:59 AM EST on December 14, 2017 (GMT -0500)
Montreal Mirabel

Weather History for CYMX - April, 2014

Change the Weather History Date:

Tuesday, April 15, 2014

  Actual Average Record
Temperature  
Mean Temperature 42 °F -  
Max Temperature 59 °F 50 °F 66 °F (2002)
Min Temperature 23 °F 31 °F 19 °F (1997)
Degree Days  
Heating Degree Days 24    
Moisture  
Dew Point 43 °F    
Average Humidity 92    
Maximum Humidity 100    
Minimum Humidity 63    
Precipitation  
Precipitation 0.00 in - - ()
Sea Level Pressure  
Sea Level Pressure 29.56 in    
Wind  
Wind Speed 7 mph ()    
Max Wind Speed 20 mph    
Max Gust Speed 32 mph    
Visibility 9.5 miles    
Events Fog , Rain , Snow    
Averages and records for this station are not official NWS values.
T = Trace of Precipitation, MM = Missing Value Source: Averaged Metar Reports

Daily Weather History Graph

Daily Weather History Graph

Search for Another Location

Airport or City:

Trip Planner

Search our weather history database for the weather conditions in past years. The results will help you decide how hot, cold, wet, or windy it might be!

Date:

Astronomy

Apr. 15, 2014 Rise Set
Actual Time 6:10 AM EDT 7:42 PM EDT
Civil Twilight 5:39 AM EDT 8:13 PM EDT
Nautical Twilight 5:01 AM EDT 8:51 PM EDT
Astronomical Twilight 4:21 AM EDT 9:32 PM EDT
Moon 8:23 PM EDT (4/15) 6:16 AM EDT (4/15)
Length of Visible Light 14h 34m
Length of Day
13h 32m
Full, 100% of the Moon is Illuminated
Apr 15
Full
Apr 22
Last Quarter
Apr 29
New
May 6
First Quarter
May 14
Full

Hourly Weather History & Observations

Time (EDT) Temp. Windchill Dew Point Humidity Pressure Visibility Wind Dir Wind Speed Gust Speed Precip Events Conditions
12:00 AM 57.2 °F - 57.2 °F 100% 29.63 in 20.0 mi SSW 9.2 mph - N/A Rain Light Rain Showers
1:00 AM 57.2 °F - 55.4 °F 94% 29.63 in 20.0 mi SSW 8.1 mph - N/A Rain Light Rain Showers
2:00 AM 57.2 °F - 55.4 °F 94% 29.62 in 20.0 mi SSW 8.1 mph - N/A Rain Light Rain Showers
3:00 AM 55.4 °F - 55.4 °F 100% 29.61 in 20.0 mi SW 8.1 mph - N/A Rain Light Rain Showers
4:00 AM 53.6 °F - 50.0 °F 88% 29.60 in 15.0 mi SW 4.6 mph - N/A Rain Light Rain Showers
5:00 AM 50.0 °F - 50.0 °F 100% 29.57 in 20.0 mi South 3.5 mph - N/A Rain Light Rain Showers
5:37 AM 50.0 °F - 50.0 °F 100% 29.55 in 15.0 mi SE 2.3 mph - N/A   Light Drizzle
6:00 AM 50.0 °F - 50.0 °F 100% 29.55 in 15.0 mi Calm Calm - N/A   Light Drizzle
6:23 AM 50.0 °F - 50.0 °F 100% 29.54 in 2.0 mi NE 2.3 mph - N/A Rain Light Rain Showers
6:33 AM 50.0 °F - 50.0 °F 100% 29.54 in 4.0 mi NE 2.3 mph - N/A Rain Light Rain Showers
6:46 AM 50.0 °F - 50.0 °F 100% 29.52 in 4.0 mi ENE 4.6 mph - N/A Rain Light Rain Showers
7:00 AM 50.0 °F - 50.0 °F 100% 29.51 in 5.0 mi East 5.8 mph - N/A Rain Light Rain Showers
8:00 AM 51.8 °F - 51.8 °F 100% 29.46 in 0.5 mi East 3.5 mph - N/A Fog , Rain Light Rain Showers
8:07 AM 53.6 °F - 53.6 °F 100% 29.46 in 2.0 mi East 4.6 mph - N/A Rain Light Rain Showers
8:26 AM 55.4 °F - 55.4 °F 100% 29.44 in 25.0 mi SE 8.1 mph - N/A Fog Patches of Fog
9:00 AM 57.2 °F - 55.4 °F 94% 29.43 in 45.0 mi SSE 10.4 mph - N/A Rain Light Rain Showers
10:00 AM 57.2 °F - 55.4 °F 94% 29.39 in 25.0 mi SSE 9.2 mph - N/A   Overcast
11:00 AM 59.0 °F - 55.4 °F 88% 29.37 in 6.0 mi South 12.7 mph 18.4 mph N/A Rain Light Rain Showers
11:07 AM 53.6 °F - 50.0 °F 88% 29.41 in 6.0 mi WSW 19.6 mph 32.2 mph N/A Rain Light Rain Showers
11:11 AM 51.8 °F - 48.2 °F 88% 29.41 in 8.0 mi WSW 12.7 mph 32.2 mph N/A Rain Light Rain Showers
11:43 AM 44.6 °F 39.2 °F 41.0 °F 87% 29.43 in 15.0 mi NW 10.4 mph 18.4 mph N/A Rain Light Rain Showers
12:00 PM 44.6 °F 40.2 °F 41.0 °F 87% 29.44 in 6.0 mi WNW 8.1 mph - N/A Rain Light Rain Showers
1:00 PM 42.8 °F 38.0 °F 42.8 °F 100% 29.47 in 5.0 mi WSW 8.1 mph 20.7 mph N/A Rain Light Rain
1:38 PM 41.0 °F 32.8 °F 39.2 °F 93% 29.50 in 5.0 mi WSW 16.1 mph 24.2 mph N/A Rain Light Rain
2:00 PM 39.2 °F 31.2 °F 37.4 °F 93% 29.51 in 6.0 mi WSW 13.8 mph 26.5 mph N/A Rain Light Rain
3:00 PM 39.2 °F 30.8 °F 35.6 °F 87% 29.52 in 15.0 mi West 15.0 mph 27.6 mph N/A Rain Light Rain
3:29 PM 37.4 °F 29.3 °F 35.6 °F 93% 29.54 in 25.0 mi WSW 12.7 mph 24.2 mph N/A Rain Light Rain
4:00 PM 35.6 °F 27.1 °F 33.8 °F 93% 29.58 in 25.0 mi WSW 12.7 mph 24.2 mph N/A Rain Light Rain
4:34 PM 33.8 °F 24.8 °F 32.0 °F 93% 29.59 in 5.0 mi West 12.7 mph 19.6 mph N/A Snow Light Snow
5:00 PM 33.8 °F 23.9 °F 30.2 °F 87% 29.62 in 3.0 mi WSW 15.0 mph 24.2 mph N/A Snow Light Snow
6:00 PM 32.0 °F 23.6 °F 28.4 °F 87% 29.67 in 4.0 mi WSW 10.4 mph 18.4 mph N/A Snow Light Snow
7:00 PM 30.2 °F 21.9 °F 24.8 °F 80% 29.72 in 10.0 mi West 9.2 mph 24.2 mph N/A Snow Light Snow
8:00 PM 26.6 °F 17.5 °F 21.2 °F 80% 29.78 in 10.0 mi West 9.2 mph - N/A Snow Light Snow
9:00 PM 24.8 °F 12.4 °F 17.6 °F 74% 29.84 in 10.0 mi West 15.0 mph 26.5 mph N/A Snow Light Snow
10:00 PM 24.8 °F 14.6 °F 15.8 °F 69% 29.89 in 25.0 mi West 10.4 mph 20.7 mph N/A Snow Light Snow
11:00 PM 23.0 °F 11.7 °F 12.2 °F 63% 29.90 in 25.0 mi WNW 11.5 mph - N/A Snow Light Snow